FENGYUN 1C DEB, 30435

Orbit data source: Space-Track

FENGYUN 1C DEB, 30435 is space debris in SSO originally from a launch on Mon, 10 May 1999 UTC launched from the Taiyaun Space Center, China (TSC). Fengyun 1C debris stems from the Chinese weather satellite Fengyun-1C, which was intentionally destroyed by a Chinese anti-satellite missile in 2007. This event dramatically increased the amount of space debris, with thousands of trackable fragments posing hazards to satellites and human spaceflight. The Fengyun 1C debris cloud has become a focal point in discussions about space sustainability and the need for international regulations to prevent the creation of new debris.

Loading next visibility...
Identifier
30435, 1999-025AEW
Orbit
SSO
Country
Flag of CNCN / PRC
Related business
Manufacturer
Unknown
Mission
Spacecraft
Bus & Motor
Unknown
Mass
Unknown
Launch date (UTC)
1999-05-10 (27 years ago)
Launch vehicle
Unknown
Launch site
Taiyaun Space Center, China (TSC)
Object type
Payload
Rocket body
Debris
Shape & HBR
Unknown shape, 0.1 m
Radar Cross Section
Medium (>0.1 m² and <1 m²)

Expand to show TLE details & history
Last TLE update: 12 hours ago

TLE from 12 hours ago
0 FENGYUN 1C DEB
1 30435U 99025AEW 26164.23134328  .00001453  00000-0  12061-2 0  9990
2 30435  99.0268 147.2942 0210223 346.1104 130.8148 13.80639524966770
Epoch: 2026-06-13T05:33Z
TLE epoch observation values (Epoch: 2026-06-13T05:33:08.059Z)
Latitude
60.10658°
Longitude
-1.58087°
Altitude
1,074.483 km
Speed
7.269 km/s
True Right ascension
22h 53m 00s
True Declination
59° 57' 51"
Sunlit
Object was in daylight at epoch
Visualization orbit readout
Latitude
Unknown
Longitude
Unknown
Altitude
Unknown
Speed
Unknown
Apparent Right ascension
Unknown
Apparent Declination
Unknown
Sunlit
N/A
Visualization observer readout
Local Sidereal Time
04:17:20
Azimuth
Unknown
Elevation
Unknown
Doppler factor
Unknown
Orbital elements
Apogee altitude
1,113.084 km
Perigee altitude
804.604 km
Semi-major axis
7,336.981 km
Eccentricity
0.02102
Inclination
99.0268°
RAAN
147.2942°
Arg. of periapsis
346.1104°
True anomaly
132.60688°
Mean anomaly
130.8148°
Eccentric anomaly
131.71392°
Mean motion
3.45356 °/min
Orbital period
104.24 mins
BSTAR
0.0012061
Loading maneuver chart data...
Computing Atmospheric mass density...

Documentation

Showing up to 5 results
|